Location: Buckland
(65.9785°N, 161.1281°W)
Time: 04:47:03
(UTC+00:00)

Transit 4A - Pass Details

Date: 26 November 2020
Orbit: 864 x 980 km, 66.8° (Epoch: 26 January)

Event Time Altitude Azimuth Distance (km) Brightness Sun altitude
Rises 21:17:56 0° 231° (SW) 3,663 11.3 1.7°
Reaches altitude 10° 21:20:29 10° 229° (SW) 2,726 10.7 1.8°
Maximum altitude 21:26:51 70° 148° (SSE) 1,045 8.6 2.0°
Drops below altitude 10° 21:33:14 10° 67° (ENE) 2,738 10.3 2.2°
Sets 21:35:48 0° 65° (ENE) 3,680 10.9 2.2°
